Wind_Speed
11 10 9 7 6 5 4 5 6 7 8 8 8 9 10 10 10 10 9 10 11 12 13 13 13 13 11 10 9 9 9 8 6 5 6 8 8 10 11 11 11 12 12 13
14 13 11 10 8 7 6 6 8 9 9 9 9 9 10 10 10 10 9 10 10 11 13 13 13 13 12 10 10 10 9 9 7 6 5 7 8 9 10 11 12 12 13 14
17 16 14 12 10 9 8 8 9 10 9 10 9 10 11 11 10 10 10 10 10 11 12 13 13 13 12 11 10 9 9 9 7 7 5 6 7 8 10 11 13 13 13 14
19 17 16 14 13 11 11 11 10 10 9 10 9 8 11 11 11 11 10 11 11 11 12 12 13 13 13 11 10 9 9 8 7 7 5 5 5 8 10 12 13 14 14 15
21 19 18 17 15 14 13 12 12 11 11 11 11 8 10 11 11 10 10 11 11 11 11 12 13 13 12 11 11 10 9 9 8 7 6 6 7 8 10 11 12 14 14 15
22 20 19 18 17 16 14 14 13 12 12 12 11 10 10 10 10 11 11 11 11 11 11 12 13 13 12 12 11 10 10 10 9 7 7 7 7 8 10 10 12 13 14 15
23 22 21 20 18 17 15 14 13 12 12 12 13 11 11 11 11 11 11 10 11 11 12 12 12 12 13 12 11 11 10 9 8 7 7 7 8 8 10 10 11 12 14 16
25 24 23 21 20 19 17 16 14 12 11 13 14 12 12 12 11 10 10 11 11 11 11 12 12 12 12 12 11 11 10 9 8 7 7 8 9 9 9 10 10 12 13 15
27 27 25 24 23 21 19 17 16 16 15 13 14 13 12 12 11 10 10 10 11 11 12 12 12 12 13 12 11 10 10 10 9 8 8 8 8 9 9 10 10 12 13 14
30 29 28 26 25 24 22 20 19 17 15 13 14 12 11 11 11 10 10 10 11 12 12 11 12 12 12 12 11 10 10 10 10 9 8 7 8 8 9 10 10 11 12 13
32 31 30 28 27 25 23 22 20 19 17 14 12 12 12 11 10 9 9 10 10 11 11 12 12 12 12 12 11 11 10 10 10 9 8 9 8 8 9 9 10 10 11 12
32 31 31 29 28 27 25 23 22 21 19 16 14 13 14 11 10 10 9 10 10 11 12 12 12 12 12 12 11 11 10 10 9 9 8 8 8 9 9 9 9 10 11 12
33 32 30 30 29 27 26 24 23 21 21 18 15 13 14 12 11 10 10 10 11 11 12 12 12 12 12 12 12 11 10 10 9 9 9 8 8 9 9 10 10 10 11 12
33 32 30 26 25 26 25 24 23 23 21 20 16 15 15 13 12 11 11 11 11 11 11 12 12 12 12 13 12 12 11 10 10 10 10 9 10 10 10 10 11 12 12 13
35 33 31 29 29 28 26 25 24 24 22 21 18 17 16 15 14 13 13 12 12 12 12 12 13 13 13 13 13 12 12 12 11 10 10 10 10 11 11 12 12 13 14 15
37 35 33 31 30 29 29 28 26 25 24 22 21 20 19 17 16 15 15 14 13 13 14 14 14 14 14 14 14 14 14 13 12 12 12 12 11 11 12 12 13 14 15 16
40 37 35 32 31 31 32 29 27 26 24 23 22 21 21 19 18 17 16 15 14 15 16 16 17 16 17 17 16 15 15 14 14 13 13 13 14 14 14 15 15 16 17 17
42 40 37 34 34 34 31 30 29 27 26 25 24 24 23 21 20 19 18 18 17 17 18 19 19 18 18 19 19 18 17 16 15 15 15 15 16 16 16 17 18 18 18 18
44 42 40 38 36 35 35 32 29 28 28 27 26 25 24 23 22 21 20 20 20 20 20 20 20 20 20 20 20 19 19 18 17 17 17 17 17 17 18 18 19 19 20 20
46 44 43 42 38 34 35 34 31 30 31 29 27 26 25 24 23 24 23 23 23 23 23 22 22 23 23 22 22 22 21 21 20 20 19 19 19 18 19 19 20 20 21 22
48 47 45 43 41 37 39 36 33 33 32 31 30 29 28 28 27 27 26 26 26 26 25 25 25 25 25 25 25 24 24 24 23 22 21 21 21 21 21 21 21 21 22 23
48 47 47 45 43 40 42 39 37 36 35 33 32 32 31 30 30 29 29 29 28 28 28 28 28 28 27 27 28 27 27 26 26 24 23 23 24 23 23 23 23 23 23 24
49 49 48 47 45 44 43 41 38 37 37 36 35 34 33 33 32 31 31 30 30 30 30 30 30 30 30 30 30 30 28 29 28 27 26 26 26 26 25 25 24 24 25 25
49 50 50 49 48 46 44 42 41 39 38 38 37 37 36 35 34 33 32 32 32 32 32 32 32 32 32 33 33 32 31 31 31 30 29 29 29 28 27 27 27 26 27 27
48 48 49 49 49 47 46 45 43 42 41 40 39 38 37 37 36 35 34 34 34 34 33 33 33 33 33 33 34 35 34 33 33 32 31 31 31 30 30 29 28 28 29 29
44 45 47 49 49 48 47 46 45 44 43 42 41 39 39 37 36 36 36 35 35 35 34 34 35 34 34 34 34 35 34 33 33 32 31 31 31 31 31 31 31 30 31 32
Wind_Direction
237 239 245 249 257 269 287 298 308 323 339 341 342 339 337 336 336 332 331 334 338 341 339 341 343 341 338 338 330 323 320 315 301 276 244 231 225 222 221 219 220 223 222 219
237 240 246 251 257 267 276 285 296 310 324 328 330 330 331 331 331 330 329 331 333 335 336 339 342 343 340 337 334 328 319 314 303 293 262 240 232 225 224 222 221 222 221 220
236 240 245 249 254 263 270 276 287 301 315 320 325 328 326 326 327 327 326 325 325 329 333 335 338 340 341 336 332 325 320 315 303 294 271 247 235 233 228 223 220 221 222 222
237 240 242 247 251 257 264 273 284 296 306 307 318 312 316 322 323 322 320 320 323 325 331 335 339 338 335 334 333 326 320 317 305 295 273 250 240 231 231 227 226 227 225 224
238 239 242 246 249 254 262 273 281 291 297 301 308 308 305 315 318 316 315 317 317 321 328 333 335 335 334 332 331 328 323 316 303 292 281 264 246 240 239 236 231 231 228 226
240 242 244 246 250 255 263 272 279 285 291 294 299 301 300 301 308 309 313 313 312 318 322 329 332 334 335 332 329 328 321 315 303 285 280 270 253 245 242 239 232 233 230 228
241 242 243 245 249 253 260 267 276 282 285 286 293 296 291 294 300 302 305 308 310 316 320 322 327 333 336 333 329 328 324 318 306 285 275 266 257 251 249 243 236 234 233 231
239 240 241 243 247 252 255 258 260 262 270 281 292 293 292 292 295 299 298 299 304 309 315 320 323 329 333 333 328 327 323 320 315 295 276 272 264 257 253 249 244 239 236 234
236 239 240 242 245 249 254 256 258 262 268 271 281 293 293 290 291 291 292 293 297 304 310 317 322 325 328 329 325 322 322 317 314 307 291 278 262 257 257 252 249 242 239 235
234 238 239 241 244 248 251 254 256 259 264 271 282 291 288 290 290 285 285 289 292 297 306 315 320 323 326 326 323 319 318 318 313 305 296 282 267 262 261 260 258 251 242 237
235 237 241 242 245 249 250 252 254 256 258 262 269 278 281 285 285 285 284 287 290 293 301 311 318 320 322 324 321 319 315 314 312 306 294 281 272 268 265 261 258 251 245 238
234 236 239 242 244 246 249 251 253 255 259 259 255 266 278 278 279 281 281 283 289 292 300 306 312 318 322 322 321 318 317 312 309 305 297 284 275 272 268 261 259 256 253 248
231 234 236 241 244 246 249 251 253 253 255 257 257 262 273 272 272 274 277 281 285 289 298 304 307 311 318 322 321 317 315 313 306 300 297 288 282 277 270 265 264 261 256 254
230 233 234 238 246 248 247 248 248 249 251 255 254 250 266 268 268 270 273 278 280 285 295 303 306 307 312 316 317 316 312 309 305 300 296 292 283 277 273 272 270 265 261 259
230 233 233 234 239 244 245 244 244 245 246 248 253 254 258 263 266 269 273 275 277 279 289 298 300 299 305 310 313 313 310 304 300 297 295 290 289 279 276 275 274 272 268 264
230 233 234 236 239 242 243 243 243 244 246 248 249 252 256 262 264 267 270 272 273 277 284 293 297 296 300 303 306 307 308 302 296 293 291 290 289 283 279 275 275 274 275 272
231 233 234 237 238 240 241 242 244 245 246 248 249 251 254 260 262 264 266 268 271 277 283 288 290 291 296 298 300 301 303 299 294 291 289 289 287 284 281 277 274 274 275 276
231 232 233 234 237 238 241 240 241 243 245 247 248 250 254 257 258 260 263 265 269 275 282 286 287 288 292 296 298 296 297 298 294 291 289 292 291 285 283 281 277 274 274 276
230 231 233 234 238 240 240 240 239 242 244 246 248 251 255 257 258 258 260 263 267 271 277 282 283 285 288 291 294 295 294 295 295 293 291 292 291 288 285 283 282 277 275 276
231 232 233 234 235 237 243 240 238 241 243 244 246 250 253 256 259 260 260 263 265 268 272 276 278 280 284 287 289 289 290 292 293 291 291 291 292 290 289 286 283 281 278 276
231 232 234 235 236 237 240 239 238 240 244 245 246 250 253 256 258 262 263 263 265 267 270 274 275 277 280 282 284 285 286 287 290 290 291 291 292 290 289 287 284 283 281 278
230 233 235 236 237 238 240 240 240 242 245 247 249 251 254 256 259 262 263 264 265 267 270 272 274 275 277 279 280 282 282 282 284 287 288 289 289 288 288 287 284 282 282 280
230 230 233 235 237 239 242 243 243 244 246 248 250 253 255 258 260 263 265 265 265 267 269 270 271 273 274 275 276 281 281 281 282 283 284 286 289 288 287 286 284 283 282 282
231 231 233 236 238 240 243 244 245 247 248 250 252 254 257 260 262 264 265 266 267 268 269 269 270 272 273 272 272 276 278 278 279 280 279 281 284 285 285 285 284 283 282 281
231 231 233 235 238 240 242 244 246 248 250 251 253 255 258 260 262 263 264 265 267 268 269 269 270 271 272 273 274 275 277 278 279 278 277 277 279 281 282 282 282 283 282 283
231 231 232 234 237 239 241 243 246 248 250 252 255 257 259 261 262 263 264 265 266 267 267 268 269 270 271 273 275 277 276 277 277 276 276 275 276 278 280 280 280 281 282 282
Height
5928 5930 5931 5932 5933 5935 5935 5935 5935 5935 5934 5934 5934 5932 5931 5929 5927 5925 5923 5921 5919 5917 5914 5912 5909 5906 5904 5903 5901 5899 5898 5896 5895 5894 5894 5894 5895 5896 5898 5899 5901 5902 5904 5906
5926 5928 5929 5930 5931 5932 5933 5934 5934 5933 5933 5933 5932 5931 5930 5928 5926 5925 5923 5921 5919 5916 5914 5912 5909 5906 5904 5902 5900 5898 5896 5895 5894 5894 5893 5893 5894 5895 5896 5897 5899 5900 5902 5904
5923 5925 5926 5928 5929 5930 5931 5932 5932 5932 5932 5931 5931 5931 5929 5927 5925 5924 5922 5920 5918 5916 5914 5911 5909 5906 5904 5901 5899 5897 5896 5895 5893 5892 5892 5892 5892 5893 5894 5895 5897 5898 5900 5902
5919 5921 5923 5925 5926 5927 5928 5929 5930 5930 5930 5930 5930 5931 5928 5925 5924 5922 5920 5919 5917 5915 5913 5911 5908 5906 5903 5901 5899 5897 5895 5894 5892 5891 5891 5890 5891 5891 5892 5893 5895 5896 5897 5899
5915 5918 5920 5922 5923 5924 5925 5926 5927 5927 5928 5928 5928 5928 5928 5924 5922 5921 5919 5918 5916 5914 5912 5910 5908 5905 5902 5900 5898 5896 5894 5893 5891 5890 5890 5889 5889 5889 5890 5891 5893 5894 5895 5897
5911 5914 5916 5918 5920 5921 5923 5924 5924 5925 5926 5926 5926 5926 5926 5923 5921 5919 5918 5916 5914 5913 5911 5909 5907 5904 5901 5899 5897 5895 5893 5892 5890 5889 5888 5888 5887 5888 5888 5889 5890 5891 5893 5894
5907 5910 5912 5914 5916 5918 5920 5922 5923 5923 5924 5925 5923 5922 5923 5920 5918 5917 5916 5914 5913 5911 5910 5908 5905 5903 5900 5897 5895 5894 5892 5890 5888 5887 5887 5887 5886 5886 5886 5887 5888 5889 5890 5892
5903 5905 5907 5910 5912 5914 5916 5918 5921 5923 5924 5922 5919 5919 5920 5917 5916 5915 5914 5912 5911 5910 5908 5906 5904 5902 5899 5897 5894 5892 5891 5889 5887 5886 5886 5885 5884 5884 5884 5885 5886 5887 5888 5889
5898 5900 5903 5905 5907 5910 5911 5914 5916 5917 5917 5918 5918 5917 5916 5914 5913 5912 5911 5910 5909 5908 5906 5905 5902 5900 5898 5895 5893 5891 5890 5888 5886 5884 5883 5882 5882 5882 5882 5883 5883 5884 5885 5886
5891 5895 5897 5899 5902 5905 5907 5909 5911 5913 5914 5915 5915 5914 5914 5911 5910 5910 5909 5908 5907 5906 5905 5903 5901 5899 5896 5894 5892 5890 5888 5886 5884 5883 5881 5881 5880 5880 5880 5881 5881 5882 5882 5884
5885 5889 5891 5895 5897 5900 5903 5905 5906 5908 5910 5912 5914 5915 5910 5909 5908 5907 5906 5906 5905 5904 5903 5901 5899 5897 5895 5893 5890 5889 5887 5885 5883 5882 5880 5879 5879 5879 5879 5879 5879 5879 5880 5881
5878 5883 5885 5889 5891 5894 5897 5899 5902 5904 5905 5907 5909 5912 5906 5905 5905 5904 5904 5903 5902 5901 5900 5899 5897 5895 5893 5891 5889 5887 5885 5884 5882 5880 5879 5878 5877 5877 5877 5877 5877 5877 5878 5879
5871 5876 5880 5883 5886 5889 5891 5893 5896 5898 5900 5901 5904 5908 5902 5902 5902 5901 5901 5900 5899 5899 5898 5897 5895 5893 5891 5889 5887 5885 5884 5882 5880 5879 5877 5876 5876 5875 5875 5875 5875 5875 5876 5876
5864 5869 5875 5879 5880 5882 5885 5887 5890 5892 5895 5897 5899 5901 5899 5899 5898 5898 5897 5897 5896 5896 5895 5894 5892 5891 5889 5887 5885 5883 5882 5880 5879 5877 5876 5874 5873 5873 5873 5873 5872 5873 5873 5873
5857 5862 5866 5870 5872 5875 5878 5881 5883 5886 5889 5892 5894 5894 5895 5894 5894 5894 5894 5893 5893 5892 5892 5891 5890 5888 5886 5885 5883 5881 5880 5878 5876 5875 5874 5872 5871 5870 5870 5870 5870 5870 5870 5870
5849 5854 5859 5863 5866 5869 5871 5874 5877 5880 5883 5885 5887 5889 5889 5890 5890 5890 5890 5889 5889 5889 5888 5887 5886 5885 5884 5882 5880 5879 5877 5875 5874 5873 5872 5870 5869 5868 5867 5867 5867 5867 5866 5866
5841 5847 5852 5856 5859 5861 5864 5868 5871 5874 5876 5879 5881 5884 5883 5884 5885 5885 5885 5885 5885 5885 5884 5883 5882 5881 5880 5879 5877 5876 5874 5873 5871 5870 5869 5868 5867 5866 5865 5864 5863 5863 5862 5862
5833 5838 5844 5849 5851 5854 5860 5862 5865 5868 5870 5873 5874 5876 5877 5878 5879 5880 5880 5880 5880 5880 5880 5879 5878 5877 5876 5875 5873 5872 5871 5869 5868 5867 5866 5864 5863 5862 5861 5860 5859 5859 5858 5857
5824 5829 5835 5840 5843 5847 5851 5854 5858 5861 5863 5866 5868 5869 5871 5872 5873 5874 5874 5874 5875 5875 5874 5874 5873 5872 5871 5870 5869 5868 5867 5865 5864 5863 5862 5860 5859 5858 5856 5855 5854 5854 5853 5852
5814 5820 5826 5831 5836 5841 5844 5847 5851 5855 5856 5858 5860 5862 5864 5865 5867 5867 5868 5868 5868 5868 5868 5868 5868 5867 5866 5865 5864 5863 5862 5861 5860 5858 5857 5855 5854 5852 5851 5850 5849 5848 5847 5846
5805 5810 5815 5820 5826 5832 5833 5838 5843 5847 5849 5851 5853 5855 5856 5858 5859 5860 5860 5860 5861 5861 5862 5862 5861 5861 5860 5859 5859 5858 5857 5855 5854 5852 5852 5850 5849 5847 5846 5845 5843 5842 5841 5840
5795 5801 5806 5811 5816 5823 5823 5829 5834 5837 5839 5842 5844 5846 5848 5849 5850 5851 5852 5853 5853 5854 5854 5854 5854 5854 5854 5853 5852 5851 5850 5849 5848 5847 5846 5845 5843 5842 5840 5838 5837 5836 5834 5833
5785 5791 5795 5801 5807 5810 5814 5819 5823 5827 5830 5832 5835 5837 5839 5840 5842 5843 5844 5844 5845 5845 5846 5846 5846 5846 5846 5845 5844 5844 5843 5842 5841 5840 5839 5838 5837 5835 5834 5832 5830 5829 5827 5826
5773 5779 5785 5790 5795 5800 5804 5808 5813 5816 5820 5823 5825 5828 5829 5831 5833 5834 5835 5835 5836 5837 5837 5837 5837 5837 5837 5837 5836 5835 5835 5833 5833 5832 5831 5830 5829 5828 5826 5825 5823 5822 5820 5819
5762 5769 5774 5779 5784 5789 5794 5798 5802 5806 5809 5812 5815 5817 5819 5821 5823 5824 5825 5826 5827 5828 5828 5828 5828 5828 5828 5828 5827 5826 5825 5825 5824 5823 5822 5822 5821 5820 5818 5817 5815 5814 5813 5811
5752 5758 5764 5768 5773 5778 5783 5787 5791 5795 5798 5802 5805 5807 5809 5811 5813 5814 5815 5816 5817 5818 5818 5819 5819 5819 5819 5819 5818 5817 5816 5816 5815 5814 5813 5812 5812 5811 5810 5808 5807 5805 5804 5802